When you browse on this site, cookies collect data to enhance your experience and personalize the content and advertising you see.
Visit our Privacy Policy to learn more. By continuing to use the site, you agree to this use of cookies and data.
  • en France
  • Liste des pays
  • À 7 jours
  • Température de l'eau
  • Carte satellitaire
  • Carte météo
  • Widgets météo
  • user-avatar
    Se connecter

    Météo par heure à Xiabaishi

    Ce jour, 20 Juillet, Samedi

    Heure Température Précipitation Vent Pression Humidité
    00:00 +29°C° 0 mm 1 m/s 747 mmHg 89%
    01:00 +28°C° 0 mm 1 m/s 747 mmHg 89%
    02:00 +28°C° 0 mm 1 m/s 747 mmHg 88%
    03:00 +28°C° 0.1 mm 1 m/s 747 mmHg 89%
    04:00 +28°C° 0.1 mm 1 m/s 747 mmHg 89%
    05:00 +28°C° 0.1 mm 1 m/s 747 mmHg 89%
    06:00 +29°C° 0 mm 1 m/s 747 mmHg 85%
    07:00 +29°C° 0 mm 0 m/s 748 mmHg 80%
    08:00 +31°C° 0 mm 0 m/s 748 mmHg 75%
    09:00 +33°C° 0.6 mm 1 m/s 748 mmHg 73%
    10:00 +34°C° 0.6 mm 1 m/s 748 mmHg 72%
    11:00 +36°C° 0.6 mm 2 m/s 748 mmHg 70%
    12:00 +36°C° 1.2 mm 2 m/s 748 mmHg 74%
    13:00 +35°C° 1.2 mm 2 m/s 747 mmHg 77%
    14:00 +35°C° 0 mm 2 m/s 747 mmHg 81%
    15:00 +34°C° 1 mm 2 m/s 747 mmHg 84%
    16:00 +32°C° 1 mm 2 m/s 747 mmHg 87%
    17:00 +32°C° 1 mm 2 m/s 747 mmHg 91%
    18:00 +31°C° 0.5 mm 2 m/s 748 mmHg 93%
    19:00 +30°C° 0.5 mm 1 m/s 748 mmHg 95%
    20:00 +29°C° 0.5 mm 1 m/s 748 mmHg 97%
    21:00 +28°C° 0 mm 1 m/s 749 mmHg 97%
    22:00 +28°C° 0 mm 1 m/s 749 mmHg 97%
    23:00 +28°C° 0 mm 1 m/s 749 mmHg 97%

    Demain, 21 Juillet, Dimanche

    Heure Température Précipitation Vent Pression Humidité
    00:00 +28°C° 0 mm 1 m/s 749 mmHg 97%
    01:00 +26°C° 0 mm 0 m/s 749 mmHg 97%
    02:00 +26°C° 0 mm 0 m/s 749 mmHg 97%
    03:00 +26°C° 0 mm 0 m/s 749 mmHg 97%
    04:00 +26°C° 0 mm 0 m/s 749 mmHg 97%
    05:00 +26°C° 0 mm 0 m/s 749 mmHg 97%
    06:00 +27°C° 0 mm 0 m/s 749 mmHg 94%
    07:00 +27°C° 0 mm 0 m/s 749 mmHg 92%
    08:00 +28°C° 0 mm 0 m/s 749 mmHg 89%
    09:00 +31°C° 1.4 mm 1 m/s 749 mmHg 87%
    10:00 +32°C° 1.4 mm 1 m/s 749 mmHg 85%
    11:00 +34°C° 1.4 mm 2 m/s 749 mmHg 83%
    12:00 +34°C° 2 mm 2 m/s 749 mmHg 83%
    13:00 +34°C° 2 mm 2 m/s 748 mmHg 83%
    14:00 +34°C° 2 mm 2 m/s 748 mmHg 84%
    15:00 +32°C° 0.7 mm 2 m/s 748 mmHg 86%
    16:00 +32°C° 0.7 mm 2 m/s 748 mmHg 88%
    17:00 +31°C° 0.7 mm 2 m/s 748 mmHg 90%
    18:00 +30°C° 0.2 mm 2 m/s 748 mmHg 92%
    19:00 +30°C° 0.2 mm 1 m/s 748 mmHg 93%
    20:00 +29°C° 0.2 mm 1 m/s 749 mmHg 95%
    21:00 +29°C° 0.3 mm 1 m/s 749 mmHg 96%
    22:00 +28°C° 0.3 mm 1 m/s 749 mmHg 97%
    23:00 +28°C° 0.3 mm 1 m/s 750 mmHg 97%

    Après-demain, 22 Juillet, Lundi

    Heure Température Précipitation Vent Pression Humidité
    00:00 +28°C° 0.2 mm 1 m/s 749 mmHg 97%
    01:00 +26°C° 0.2 mm 0 m/s 749 mmHg 98%
    02:00 +26°C° 0.2 mm 0 m/s 749 mmHg 98%
    03:00 +26°C° 0 mm 0 m/s 749 mmHg 98%
    04:00 +26°C° 0 mm 0 m/s 749 mmHg 98%
    05:00 +26°C° 0 mm 0 m/s 748 mmHg 98%
    06:00 +27°C° 0.6 mm 0 m/s 749 mmHg 96%
    07:00 +27°C° 0.6 mm 0 m/s 749 mmHg 95%
    08:00 +30°C° 0.6 mm 1 m/s 750 mmHg 94%
    09:00 +31°C° 1.1 mm 1 m/s 749 mmHg 90%
    10:00 +32°C° 1.1 mm 2 m/s 749 mmHg 87%
    11:00 +34°C° 1.1 mm 2 m/s 749 mmHg 83%
    12:00 +34°C° 0.8 mm 2 m/s 749 mmHg 81%
    13:00 +34°C° 0.8 mm 3 m/s 748 mmHg 79%
    14:00 +34°C° 0.8 mm 3 m/s 748 mmHg 77%
    15:00 +34°C° 0.4 mm 3 m/s 748 mmHg 78%
    16:00 +33°C° 0.4 mm 3 m/s 748 mmHg 79%
    17:00 +32°C° 0.4 mm 2 m/s 747 mmHg 80%
    18:00 +30°C° 0.1 mm 2 m/s 748 mmHg 84%
    19:00 +29°C° 0.1 mm 2 m/s 748 mmHg 89%
    20:00 +28°C° 0.1 mm 1 m/s 749 mmHg 93%
    21:00 +27°C° 0 mm 1 m/s 749 mmHg 93%
    22:00 +27°C° 0 mm 1 m/s 749 mmHg 94%
    23:00 +27°C° 0 mm 1 m/s 750 mmHg 94%

    23 Juillet, Mardi

    Heure Température Précipitation Vent Pression Humidité
    00:00 +27°C° 0 mm 1 m/s 749 mmHg 95%
    01:00 +24°C° 0 mm 0 m/s 749 mmHg 95%
    02:00 +24°C° 0 mm 0 m/s 749 mmHg 95%
    03:00 +24°C° 0 mm 0 m/s 749 mmHg 95%
    04:00 +24°C° 0 mm 0 m/s 749 mmHg 95%
    05:00 +24°C° 0 mm 0 m/s 749 mmHg 95%
    06:00 +25°C° 0 mm 0 m/s 749 mmHg 90%
    07:00 +27°C° 0 mm 0 m/s 749 mmHg 85%
    08:00 +28°C° 0 mm 0 m/s 750 mmHg 80%
    09:00 +32°C° 0 mm 1 m/s 750 mmHg 74%
    10:00 +33°C° 0 mm 1 m/s 749 mmHg 69%
    11:00 +35°C° 0 mm 2 m/s 749 mmHg 63%
    12:00 +35°C° 0.2 mm 2 m/s 749 mmHg 65%
    13:00 +35°C° 0.2 mm 3 m/s 748 mmHg 67%
    14:00 +35°C° 0.2 mm 3 m/s 748 mmHg 69%
    15:00 +34°C° 0.6 mm 2 m/s 748 mmHg 73%
    16:00 +34°C° 0.6 mm 2 m/s 748 mmHg 76%
    17:00 +32°C° 0.6 mm 2 m/s 748 mmHg 80%
    18:00 +31°C° 0.4 mm 2 m/s 748 mmHg 85%
    19:00 +29°C° 0.4 mm 1 m/s 748 mmHg 91%
    20:00 +28°C° 0.4 mm 1 m/s 749 mmHg 96%
    21:00 +28°C° 0.1 mm 1 m/s 749 mmHg 96%
    22:00 +27°C° 0.1 mm 1 m/s 749 mmHg 96%
    23:00 +27°C° 0.1 mm 1 m/s 749 mmHg 97%

    24 Juillet, Mercredi

    Heure Température Précipitation Vent Pression Humidité
    00:00 +27°C° 0 mm 1 m/s 749 mmHg 96%
    01:00 +27°C° 0 mm 1 m/s 749 mmHg 96%
    02:00 +25°C° 0 mm 0 m/s 749 mmHg 96%
    03:00 +25°C° 0 mm 0 m/s 749 mmHg 96%
    04:00 +25°C° 0 mm 0 m/s 748 mmHg 96%
    05:00 +25°C° 0 mm 0 m/s 748 mmHg 96%
    06:00 +26°C° 0 mm 0 m/s 749 mmHg 92%
    07:00 +27°C° 0 mm 0 m/s 749 mmHg 89%
    08:00 +28°C° 0 mm 0 m/s 749 mmHg 86%
    09:00 +32°C° 0 mm 1 m/s 749 mmHg 78%
    10:00 +34°C° 0 mm 1 m/s 749 mmHg 69%
    11:00 +36°C° 0 mm 2 m/s 749 mmHg 61%
    12:00 +36°C° 0.4 mm 2 m/s 749 mmHg 65%
    13:00 +36°C° 0.4 mm 2 m/s 749 mmHg 68%
    14:00 +35°C° 0.4 mm 2 m/s 748 mmHg 72%
    15:00 +35°C° 0.8 mm 2 m/s 748 mmHg 77%
    16:00 +34°C° 0.8 mm 2 m/s 748 mmHg 81%
    17:00 +32°C° 0.8 mm 2 m/s 748 mmHg 86%
    18:00 +31°C° 0.3 mm 1 m/s 748 mmHg 89%
    19:00 +30°C° 0.3 mm 1 m/s 749 mmHg 92%
    20:00 +28°C° 0.3 mm 1 m/s 749 mmHg 95%
    21:00 +28°C° 0.1 mm 1 m/s 750 mmHg 95%
    22:00 +28°C° 0.1 mm 1 m/s 750 mmHg 95%
    23:00 +28°C° 0.1 mm 1 m/s 750 mmHg 95%

    25 Juillet, Jeudi

    Heure Température Précipitation Vent Pression Humidité
    00:00 +26°C° 0 mm 0 m/s 750 mmHg 95%
    01:00 +25°C° 0 mm 0 m/s 750 mmHg 95%
    02:00 +25°C° 0 mm 0 m/s 749 mmHg 95%
    03:00 +25°C° 0 mm 0 m/s 749 mmHg 95%
    04:00 +25°C° 0 mm 0 m/s 749 mmHg 95%
    05:00 +25°C° 0 mm 0 m/s 749 mmHg 96%
    06:00 +26°C° 0 mm 0 m/s 750 mmHg 92%
    07:00 +27°C° 0 mm 0 m/s 750 mmHg 89%
    08:00 +29°C° 0 mm 0 m/s 750 mmHg 85%
    09:00 +33°C° 0 mm 1 m/s 750 mmHg 77%
    10:00 +34°C° 0 mm 1 m/s 750 mmHg 69%
    11:00 +36°C° 0 mm 1 m/s 750 mmHg 61%
    12:00 +36°C° 1.3 mm 2 m/s 750 mmHg 68%
    13:00 +35°C° 1.3 mm 2 m/s 749 mmHg 74%
    14:00 +35°C° 1.3 mm 2 m/s 749 mmHg 81%
    15:00 +34°C° 1.2 mm 2 m/s 749 mmHg 84%
    16:00 +34°C° 1.2 mm 2 m/s 749 mmHg 87%
    17:00 +32°C° 1.2 mm 2 m/s 748 mmHg 89%
    18:00 +31°C° 0.7 mm 2 m/s 749 mmHg 92%
    19:00 +30°C° 0.7 mm 2 m/s 750 mmHg 94%
    20:00 +29°C° 0.7 mm 2 m/s 750 mmHg 96%
    21:00 +28°C° 0.1 mm 2 m/s 750 mmHg 97%
    22:00 +28°C° 0.1 mm 2 m/s 751 mmHg 97%
    23:00 +28°C° 0.1 mm 1 m/s 751 mmHg 97%
    Voir plus